Regional Weather Roundup
Issued by NWS Upton, NY

Current Version | Previous Version | Text Only | Print | Product List | Glossary Off
Versions: 1 2 3 4 5 6 7 8 9 10 11 12 13 14 15 16 17 18 19 20 21 22 23 24 25 26 27
000 ASUS41 KOKX 221205 RWROKX Regional Weather Roundup National Weather Service New York NY 800 AM EDT SUN APR 22 2018 Note: "FAIR" indicates few or no clouds below 12,000 feet with no significant weather and/or obstructions to visibility. NYZ071-072-176-178-NJZ106-104-221300- New York City Metro Area CITY SKY/WX TMP DP RH WIND PRES REMARKS Central Park FAIR 48 17 29 NW3 30.43S Bronx Bot Gard N/A 50 19 29 W9 30.41F Bronx Lehman C N/A 46 19 34 NW6 N/A LaGuardia Arpt FAIR 50 24 36 NW6 30.41S Queens College N/A 50 19 29 NW5 N/A Kennedy Intl FAIR 50 23 34 W6 30.42S Breezy Point N/A 46 N/A N/A W5 N/A Brooklyn Coll N/A 50 21 32 W5 N/A Staten Island N/A 46 23 39 SW2 N/A Newark/Liberty FAIR 50 22 33 W3 30.41S Teterboro FAIR 48 20 32 CALM 30.41R $$ NYZ177-179-078>081-221300- Long Island New York CITY SKY/WX TMP DP RH WIND PRES REMARKS Jones Beach N/A 48 N/A N/A MISG N/A Wantagh N/A 46 23 39 N2 N/A Hempstead N/A 48 25 40 NW3 30.43S Matinecock Pt N/A 46 N/A N/A SW1 N/A Farmingdale FAIR 48 22 35 NE5 30.41R MacArthur/ISP FAIR 49 25 39 N8 30.40R Stony Brook N/A 46 25 42 NW3 N/A Shirley FAIR 49 27 42 N8 30.40S Mt Sinai Harb N/A N/A N/A N/A NW5 N/A Westhampton FAIR 47 32 56 NW8 30.41R East Hampton FAIR 47 27 45 N6 30.39R Southold N/A 45 28 53 NW7 N/A Montauk N/A 48 28 46 NW6 30.39R $$ NYZ052-065-067-221300- Hudson Valley CITY SKY/WX TMP DP RH WIND PRES REMARKS White Plains FAIR 47 22 37 NW3 30.39R Larchmont Harb N/A 45 N/A N/A W2 N/A Croton On Huds N/A 46 N/A N/A MISG N/A Somers N/A 43 23 45 SW1 N/A Brewster N/A 41 25 52 SE1 N/A Newburgh NOT AVBL Montgomery FAIR 39 25 57 SW5 30.40R Otisville N/A 43 21 42 SW2 N/A Warwick N/A 39 28 65 NE2 N/A Suffern N/A 45 19 36 SW2 N/A Poughkeepsie FAIR 37 27 67 CALM 30.42R Albany FAIR 41 23 48 CALM 30.41R $$ NJZ001-105-106-008-010-013-015-019>022-104-221300- New Jersey CITY SKY/WX TMP DP RH WIND PRES REMARKS Newark/Liberty FAIR 50 22 33 W3 30.41S Teterboro FAIR 48 20 32 CALM 30.41R Caldwell FAIR 43 24 47 CALM 30.42S Somerville FAIR 39 28 64 CALM 30.42R Linden FAIR 47 20 34 CALM 30.43S Perth Amboy N/A 45 N/A N/A W6 N/A Sussex FAIR 35 28 75 CALM 30.42R Andover N/A 38 28 67 CALM 30.42R Trenton FAIR 47 26 44 NW3 30.42S Millville FAIR 48 32 53 NE7 30.42S Atlantic City FAIR 48 30 49 N5 30.43R Wrightstown FAIR 49 24 38 CALM 30.40S Toms River FAIR 44 32 62 CALM 30.43S Belmar FAIR 48 23 37 NW3 30.43 $$ PAZ047>061-062-071-221300- Eastern Pennsylvania CITY SKY/WX TMP DP RH WIND PRES REMARKS Philadelphia FAIR 49 24 37 CALM 30.44S Allentown FAIR 41 28 60 N3 30.43R Scranton FAIR 38 22 52 CALM 30.43R $$ CTZ002-004>006-009-010-012-RIZ004-006-007-MAZ004-011-015-221300- Southern New England In CT CITY SKY/WX TMP DP RH WIND PRES REMARKS Bradley Intl FAIR 42 23 46 CALM 30.38R Hartford FAIR 41 32 70 CALM 30.40R Danbury FAIR 40 25 55 CALM 30.41R Wtrbury/Oxford FAIR 43 21 41 NW8 30.39R Norwalk Harbor N/A 43 N/A N/A NW7 N/A Bridgeport FAIR 48 21 34 NW8 30.41R Meriden FAIR 44 27 51 CALM 30.40R New Haven FAIR 47 24 40 NW6 30.40R Chester FAIR 48 19 32 NW5 30.38R Groton FAIR 48 23 37 N6 30.38R Willimantic FAIR 38 30 73 CALM 30.39R In RI CITY SKY/WX TMP DP RH WIND PRES REMARKS Providence FAIR 49 25 39 VRB5 30.36S Block Island FAIR 47 23 38 NW8 30.38R Westerly FAIR 48 24 39 N6 30.38R In MA CITY SKY/WX TMP DP RH WIND PRES REMARKS Boston FAIR 47 19 33 NW9 30.35R Worcester FAIR 43 18 36 NW10 30.34R Westfield FAIR 40 27 59 CALM 30.38R Provincetown FAIR 45 33 63 NW9 30.34S Nantucket FAIR 48 36 63 NW7 30.34R $$ ANZ330-335-338-340-345-350-353-355-221300- Coastal Marine Observations STATION/POSITION TIME SKY/WX TEMP WIND PRES VSBY WAVE AIR SEA DIR/SP/G HT/PER (UTC) (F) (DEG/KT/KT) (MB) (MI) (FT/S) NY Harb Entrance 1150 46 45 260/ 2/ 2 1030.0 1/ 5 20 S Fire Island 1150 45 43 330/ 10/ 10 1029.6 1/ 5 23 SSW Montauk P 1150 44 42 300/ 8/ 10 1029.1 2/ 5 15 E Barnegat Li 1130 44 N/A 2/ 5 Hudson Canyon 1150 46 44 340/ 10/ 12 1028.8 2/ 5 Kings Point 1136 45 45 210/ 1/ 2 1030.8 Execution Rocks NOT AVBL Western LI Sound NOT AVBL Central LI Sound 1145 44 290/ 6/ 8 N/A 1 Robbins Reef 1142 46 270/ 5/ 5 1030.6 $$ >>>>>>>>>>>>>>>>>>>>>>>>>>>> KEY <<<<<<<<<<<<<<<<<<<<<<<<<<< > < > SKY/WX - Sky Condition/Present Weather < > TMP - Temperature in Fahrenheit < > DP - Dew Point in Fahrenheit < > RH - Relative Humidity in Percent < > WIND - Direction (from) and Speed in MPH < > PRES - Mean Sea Level Pressure (inches of Hg) < > WCI - Wind Chill Index < > VSB - Visibility in Miles < > HX - Heat Index < > TC - Temperature in Celsius < > VRB - Varibale Wind Direction < > < >>>>>>>>>>>>>>>>>>>>>>>>>>>> KEY <<<<<<<<<<<<<<<<<<<<<<<<<<<

USA.gov is the U.S. government's official web portal to all federal, state and local government web resources and services.